Waarnemingen

Advertentie
Mijn weer
Quimper, Frankrijk (7201): temperatuur & dauwpunt: 18.06.2019 11:00:00 - 24.06.2019 11:00:00 (CEST)Quimper, Frankrijk (7201): temperatuur 5cm: 18.06.2019 11:00:00 - 24.06.2019 11:00:00 (CEST)Quimper, Frankrijk (7201): temperatuur -20cm: 18.06.2019 11:00:00 - 24.06.2019 11:00:00 (CEST)Quimper, Frankrijk (7201): windsnelheid & windstoten: 18.06.2019 11:00:00 - 24.06.2019 11:00:00 (CEST)Quimper, Frankrijk (7201): windrichting: 18.06.2019 11:00:00 - 24.06.2019 11:00:00 (CEST)Quimper, Frankrijk (7201): luchtdruk: 18.06.2019 11:00:00 - 24.06.2019 11:00:00 (CEST)Quimper, Frankrijk (7201): zicht: 18.06.2019 11:00:00 - 24.06.2019 11:00:00 (CEST)Quimper, Frankrijk (7201): Zonneschijnduur: 18.06.2019 11:00:00 - 24.06.2019 11:00:00 (CEST)Quimper, Frankrijk (7201): neerslag: 18.06.2019 11:00:00 - 24.06.2019 11:00:00 (CEST)
Datum & Tijd tt [°C] td [°C] tt 5cm [°C] tt -20cm [°C] ff [km/u] ff [kn] fx [km/u] fx [kn] dd ppp [hPa] vv [km] sd [min] rr [mm]
24.06.2019 11:00:00 16,5 14,9 17,5 17,2 3 2 9 5 NO 1016,7 20 0 0,0
24.06.2019 10:00:00 15,8 15,3 16,0 17,2 4 2 13 7 O 1016,5 14 0 0,0
24.06.2019 09:00:00 15,3 15,1 14,9 17,2 3 2 6 4 N 1016,4 7 0 0,0
24.06.2019 08:00:00 14,8 14,8 14,1 17,3 2 1 7 4 WZW 1016,2 4,9 0 0,0
24.06.2019 07:00:00 14,4 14,2 13,7 17,4 0 0 8 4 N 1015,3 3,6 0 0,0
24.06.2019 06:00:00 14,3 14,1 13,6 17,4 4 2 7 4 OZO 1015,6 0,8 0 0,2
24.06.2019 05:00:00 14,1 13,9 12,9 17,5 0 0 4 2 N 1014,7 0,4 0 0,0
24.06.2019 04:00:00 13,8 13,5 12,5 17,5 0 0 8 4 N 1014,9 1,4 0 0,0
24.06.2019 03:00:00 13,4 12,9 11,9 17,6 0 0 0 0 N 1015,2 8 0 0,0
24.06.2019 02:00:00 14,0 13,4 12,6 17,6 2 1 4 2 WNW 1014,7 12 0 0,0
24.06.2019 01:00:00 14,5 13,7 13,6 17,6 4 2 11 6 WNW 1014,7 17 0 0,0
24.06.2019 00:00:00 15,0 14,0 14,4 17,6 8 5 17 9 WNW 1014,3 19 0 0,0
23.06.2019 23:00:00 15,8 14,5 15,4 17,6 9 5 19 10 W 1014,2 32 0 0,0
23.06.2019 22:00:00 16,5 14,7 16,2 17,5 12 7 18 10 W 1012,9 42 19 0,0
23.06.2019 21:00:00 17,5 15,7 17,5 17,4 9 5 19 11 W 1012,5 20 0 0,0
23.06.2019 20:00:00 18,3 16,1 18,8 17,3 14 8 29 15 WZW 1012,1 30 0 0,0
23.06.2019 19:00:00 20,1 15,3 20,7 17,2 10 5 19 10 ZW 1011,2 56 8 0,0
23.06.2019 18:00:00 19,9 15,3 20,7 17,1 10 5 23 12 Z 1011,4 49 0 0,0
23.06.2019 17:00:00 21,3 16,5 21,4 17,0 15 8 28 15 ZO 1011,1 40 5 0,0
23.06.2019 16:00:00 21,3 16,5 22,6 16,9 14 8 23 13 ZZO 1011,3 46 10 0,0
23.06.2019 15:00:00 21,8 16,7 22,7 16,9 9 5 16 9 OZO 1011,2 37 10 0,0
23.06.2019 14:00:00 20,6 16,2 22,3 16,8 9 5 20 11 ZO 1011,3 59 17 0,0
23.06.2019 13:00:00 19,2 16,2 17,0 16,9 5 3 16 9 O 1011,2 20 7 0,0
23.06.2019 12:00:00 16,6 15,5 15,7 16,9 9 5 15 8 NO 1011,3 39 0 0,4
23.06.2019 11:00:00 16,4 14,8 15,1 16,9 8 4 17 9 O 1012,1 17 0 1,2
23.06.2019 10:00:00 16,8 13,7 15,2 16,9 7 4 13 7 O 1013,1 18 0 0,2
23.06.2019 09:00:00 17,4 12,9 15,6 17,0 4 2 11 6 OZO 1013,0 60 0 0,0
23.06.2019 08:00:00 17,6 12,1 17,1 17,0 8 4 19 11 ZO 1012,2 59 0 0,0
23.06.2019 07:00:00 17,4 11,4 16,5 17,1 8 4 15 8 OZO 1011,9 60 0 0,0
23.06.2019 06:00:00 17,4 11,0 16,0 17,1 9 5 18 10 OZO 1011,9 60 0 0,0
23.06.2019 05:00:00 17,6 10,7 16,6 17,1 11 6 18 10 O 1012,2 60 0 0,0
23.06.2019 04:00:00 18,1 10,9 17,4 17,2 9 5 22 12 OZO 1012,5 60 0 0,0
23.06.2019 03:00:00 17,9 11,5 16,2 17,2 10 5 19 10 OZO 1013,2 60 0 0,0
23.06.2019 02:00:00 17,1 12,0 15,5 17,2 6 3 14 8 O 1013,9 60 0 0,0
23.06.2019 01:00:00 16,6 11,5 15,6 17,2 5 3 14 8 O 1014,3 60 0 0,0
23.06.2019 00:00:00 17,3 11,3 16,0 17,2 5 3 10 5 OZO 1014,7 60 0 0,0
22.06.2019 23:00:00 17,1 11,6 16,0 17,1 7 4 11 6 O 1014,8 60 0 0,0
22.06.2019 22:00:00 17,4 11,2 16,0 17,0 6 3 11 6 OZO 1014,7 60 1 0,0
22.06.2019 21:00:00 19,1 10,4 19,0 16,9 8 4 18 10 ZO 1015,0 60 10 0,0
22.06.2019 20:00:00 20,0 10,4 20,5 16,8 11 6 22 12 ZZO 1015,5 58 31 0,0
22.06.2019 19:00:00 20,1 10,8 21,3 16,6 14 8 32 17 ZO 1015,8 58 20 0,0
22.06.2019 18:00:00 20,9 10,7 22,2 16,4 16 9 35 19 ZO 1015,7 54 46 0,0
22.06.2019 17:00:00 20,7 11,9 22,3 16,2 19 10 41 22 ZZO 1016,6 48 51 0,0
22.06.2019 16:00:00 21,9 12,7 23,3 16,1 22 12 41 22 ZZO 1016,6 55 60 0,0
22.06.2019 15:00:00 20,0 12,2 21,5 16,0 20 11 37 20 ZZO 1017,1 60 17 0,0
22.06.2019 14:00:00 20,1 13,1 21,6 15,9 24 13 40 22 ZZO 1017,6 39 48 0,0
22.06.2019 13:00:00 20,7 12,7 23,0 15,9 21 12 37 20 ZZO 1017,6 42 60 0,0
22.06.2019 12:00:00 20,5 11,9 22,9 15,8 20 11 38 21 ZZO 1017,7 47 60 0,0
22.06.2019 11:00:00 19,3 11,8 20,6 15,9 15 8 26 14 ZO 1018,4 50 60 0,0
22.06.2019 10:00:00 18,0 11,8 17,7 16,0 13 7 24 13 ZO 1018,4 53 60 0,0
22.06.2019 09:00:00 15,5 11,1 14,5 16,1 9 5 19 11 OZO 1019,0 60 60 0,0
22.06.2019 08:00:00 12,5 9,3 10,7 16,2 10 6 16 9 ONO 1019,3 60 60 0,0
22.06.2019 07:00:00 9,8 7,9 6,5 16,3 9 5 12 6 ONO 1019,9 49 15 0,0
22.06.2019 06:00:00 9,5 8,1 7,2 16,4 7 4 11 6 ONO 1020,1 60 0 0,0
22.06.2019 05:00:00 9,7 8,1 7,4 16,5 7 4 11 6 ONO 1020,6 46 0 0,0
22.06.2019 04:00:00 9,9 8,7 7,9 16,6 8 4 13 7 NNO 1021,2 59 0 0,0
22.06.2019 03:00:00 10,2 8,8 8,0 16,7 8 4 11 6 NNO 1021,5 56 0 0,0
22.06.2019 02:00:00 11,0 8,9 8,8 16,7 6 3 19 10 NNO 1021,6 60 0 0,0
22.06.2019 01:00:00 11,5 9,2 9,3 16,8 8 4 11 6 NNO 1022,0 60 0 0,0
22.06.2019 00:00:00 12,1 10,2 9,7 16,8 8 4 11 6 NO 1022,2 60 0 0,0
21.06.2019 23:00:00 12,9 10,6 11,1 16,7 8 4 13 7 NNO 1022,3 60 0 0,0
21.06.2019 22:00:00 14,7 10,9 14,5 16,6 9 5 21 12 N 1022,2 60 51 0,0
21.06.2019 21:00:00 17,0 11,0 19,1 16,5 16 9 23 13 NNW 1022,1 60 60 0,0
21.06.2019 20:00:00 17,0 10,6 18,9 16,4 16 9 23 13 NNW 1022,0 60 52 0,0
21.06.2019 19:00:00 17,9 9,5 19,9 16,3 14 8 23 13 N 1022,0 60 33 0,0
21.06.2019 18:00:00 17,4 9,6 18,8 16,2 14 7 24 13 WNW 1022,1 59 0 0,0
21.06.2019 17:00:00 18,1 10,5 17,9 16,1 11 6 22 12 WNW 1022,1 50 17 0,0
21.06.2019 16:00:00 16,6 10,7 17,5 16,0 16 9 21 11 WNW 1022,1 51 0 0,0
21.06.2019 15:00:00 18,3 10,9 20,6 15,9 14 8 22 12 WZW 1022,0 49 39 0,0
21.06.2019 14:00:00 18,9 11,0 19,4 15,7 11 6 16 9 WZW 1021,9 60 12 0,0
21.06.2019 13:00:00 17,1 9,3 18,8 15,7 2 1 17 9 N 1021,9 19 14 0,0
21.06.2019 12:00:00 17,7 9,8 18,5 15,7 7 4 16 9 ONO 1021,9 18 34 0,0
21.06.2019 11:00:00 17,0 10,1 16,5 15,8 7 4 16 8 N 1021,8 20 47 0,0
21.06.2019 10:00:00 15,3 11,7 20,4 15,9 6 4 14 7 NNW 1022,0 52 55 0,0
21.06.2019 09:00:00 14,7 13,2 13,4 16,0 0 0 3 2 N 1021,8 39 60 0,0
21.06.2019 08:00:00 10,6 10,6 7,7 16,1 0 0 0 0 N 1021,5 7 60 0,0
21.06.2019 07:00:00 8,1 8,1 4,6 16,2 0 0 5 3 N 1021,4 0,2 15 0,0
21.06.2019 06:00:00 7,3 7,2 4,6 16,4 2 1 5 3 NW 1021,2 0,3 0 0,2
21.06.2019 05:00:00 9,2 9,2 5,5 16,4 0 0 0 0 N 1021,0 0,2 0 0,0
21.06.2019 04:00:00 8,7 8,2 6,0 16,5 0 0 8 5 N 1020,9 0,2 0 -
21.06.2019 03:00:00 9,8 9,3 7,3 16,6 7 4 8 5 NNW 1020,8 17 0 0,0
21.06.2019 02:00:00 10,3 9,8 8,0 16,7 5 3 10 5 NW 1020,9 35 0 0,0
21.06.2019 01:00:00 10,3 9,7 8,3 16,7 9 5 11 6 WNW 1020,7 40 0 0,0
21.06.2019 00:00:00 10,6 9,8 9,2 16,7 8 4 11 6 WNW 1020,5 35 0 0,0
20.06.2019 23:00:00 11,7 10,1 10,0 16,7 8 4 14 8 WNW 1020,1 58 0 0,0
20.06.2019 22:00:00 13,5 9,7 12,8 16,7 11 6 22 12 NW 1019,4 60 45 0,0
20.06.2019 21:00:00 15,6 9,9 17,0 16,6 16 9 27 14 NW 1019,1 60 60 0,0
20.06.2019 20:00:00 16,8 10,2 17,6 16,6 17 9 31 17 NW 1018,9 58 58 0,0
20.06.2019 19:00:00 16,0 10,3 16,5 16,6 16 9 27 14 NW 1018,8 54 11 0,0
20.06.2019 18:00:00 16,2 11,4 17,1 16,5 19 10 29 16 WNW 1018,9 53 2 0,0
20.06.2019 17:00:00 16,6 9,8 17,7 16,5 20 11 29 16 WNW 1018,7 60 0 0,0
20.06.2019 16:00:00 17,3 10,2 17,3 16,5 18 10 28 15 WNW 1018,4 60 4 0,0
20.06.2019 15:00:00 17,9 11,7 16,9 16,4 15 8 25 14 WNW 1018,3 60 11 0,0
20.06.2019 14:00:00 16,6 11,1 16,9 16,4 12 7 24 13 NW 1018,3 55 4 0,0
20.06.2019 13:00:00 15,9 10,4 13,5 16,5 13 7 26 14 WNW 1018,2 49 2 0,0
20.06.2019 12:00:00 14,6 11,4 13,5 16,5 13 7 21 12 NW 1018,2 17 2 0,2
20.06.2019 11:00:00 15,7 10,2 15,4 16,6 15 8 28 15 WNW 1017,7 60 28 0,0
20.06.2019 10:00:00 15,3 10,9 14,3 16,7 15 8 28 15 W 1017,6 60 39 0,0
20.06.2019 09:00:00 14,1 11,4 14,6 16,8 13 7 20 11 W 1017,4 20 58 0,0
20.06.2019 08:00:00 12,0 11,4 10,8 17,0 8 5 13 7 W 1017,2 20 54 0,0
20.06.2019 07:00:00 9,8 9,7 7,5 17,1 10 5 13 7 WNW 1017,1 20 16 0,0
20.06.2019 06:00:00 8,7 8,4 7,4 17,2 10 5 13 7 WNW 1016,9 27 0 0,0
20.06.2019 05:00:00 8,6 8,2 7,1 17,3 9 5 12 7 W 1016,6 16 0 0,0
20.06.2019 04:00:00 9,3 8,8 7,7 17,4 8 4 12 6 W 1016,4 29 0 0,0
20.06.2019 03:00:00 9,1 8,6 8,0 17,4 9 5 11 6 WNW 1016,3 19 0 0,0
20.06.2019 02:00:00 9,8 9,0 8,6 17,5 9 5 12 6 WNW 1016,3 19 0 0,0
20.06.2019 01:00:00 11,2 9,5 10,4 17,6 8 4 18 10 WNW 1016,2 40 0 0,0
20.06.2019 00:00:00 11,8 9,9 11,0 17,6 11 6 21 12 NW 1015,7 41 0 0,0
19.06.2019 23:00:00 12,8 10,9 12,3 17,6 14 7 27 14 NW 1015,4 37 0 0,0
19.06.2019 22:00:00 13,8 10,6 13,4 17,5 16 8 28 15 NW 1014,4 50 48 0,0
19.06.2019 21:00:00 15,3 10,9 16,6 17,5 18 10 32 17 NW 1014,0 32 60 0,0
19.06.2019 20:00:00 16,0 12,2 16,8 17,5 21 11 34 18 NW 1013,4 52 8 0,0
19.06.2019 19:00:00 16,8 11,9 18,1 17,4 19 10 34 18 NNW 1012,7 43 8 0,0
19.06.2019 18:00:00 17,5 12,8 18,9 17,3 19 11 31 17 NNW 1012,3 60 3 0,0
19.06.2019 17:00:00 17,9 13,2 19,8 17,3 19 11 28 15 NW 1012,2 58 0 0,0
19.06.2019 16:00:00 18,4 13,5 19,2 17,2 16 9 24 13 NNW 1011,9 15 6 0,0
19.06.2019 15:00:00 18,2 13,3 19,9 17,3 8 5 20 11 NW 1011,5 20 10 0,0
19.06.2019 14:00:00 17,8 13,7 18,0 17,3 9 5 18 10 NW 1011,5 29 0 0,0
19.06.2019 13:00:00 16,4 13,7 16,7 17,3 9 5 16 9 NNW 1011,4 39 0 0,0
19.06.2019 12:00:00 15,8 13,5 16,1 17,3 12 6 20 11 NW 1011,1 39 0 0,0
19.06.2019 11:00:00 15,9 13,0 16,4 17,4 14 8 21 12 NW 1010,4 50 0 0,0
19.06.2019 10:00:00 16,1 13,8 16,4 17,4 10 5 23 13 NNW 1009,9 33 0 0,0
19.06.2019 09:00:00 15,9 13,9 15,6 17,5 11 6 17 9 NNW 1009,5 15 0 0,0
19.06.2019 08:00:00 15,5 14,0 14,8 17,5 7 4 21 11 NW 1009,1 27 0 0,2
19.06.2019 07:00:00 15,4 14,4 14,9 17,6 9 5 15 8 N 1008,5 14 0 0,0
19.06.2019 06:00:00 15,5 15,0 15,0 17,6 4 2 11 6 N 1008,6 12 0 0,0
19.06.2019 05:00:00 15,7 15,2 15,0 17,7 3 2 8 4 NNO 1008,5 6 0 0,0
19.06.2019 04:00:00 15,8 15,2 15,1 17,7 3 2 8 5 N 1008,5 8 0 0,0
19.06.2019 03:00:00 16,2 15,4 15,5 17,7 7 4 13 7 NW 1008,4 20 0 0,0
19.06.2019 02:00:00 16,5 15,4 15,7 17,8 10 5 17 9 NNW 1008,3 32 0 0,2
19.06.2019 01:00:00 16,6 15,0 15,4 17,8 7 4 12 7 N 1008,3 40 0 0,0
19.06.2019 00:00:00 17,0 15,5 16,2 17,7 6 3 13 7 N 1008,8 33 0 0,0
18.06.2019 23:00:00 18,0 16,3 16,9 17,7 9 5 15 8 NNO 1008,8 35 0 0,0
18.06.2019 22:00:00 18,6 16,9 17,7 17,5 5 3 15 8 NO 1009,0 34 0 0,0
18.06.2019 21:00:00 19,7 17,3 18,8 17,4 11 6 19 11 N 1008,8 55 0 0,0
18.06.2019 20:00:00 20,5 16,7 21,1 17,3 6 4 17 9 N 1009,1 60 0 0,0
18.06.2019 19:00:00 20,9 16,9 19,9 17,1 9 5 21 11 N 1008,7 58 0 0,2
18.06.2019 18:00:00 22,1 15,7 23,8 16,9 10 5 19 11 NNO 1009,0 52 0 0,0
18.06.2019 17:00:00 23,1 14,9 26,9 16,8 8 4 15 8 N 1009,1 54 33 0,0
18.06.2019 16:00:00 23,0 17,2 26,9 16,7 11 6 20 11 NO 1009,4 46 42 0,0
18.06.2019 15:00:00 21,4 15,9 23,5 16,6 11 6 22 12 NNO 1009,9 44 2 0,0
18.06.2019 14:00:00 20,3 15,9 21,2 16,5 13 7 23 12 NO 1010,0 20 0 0,0
18.06.2019 13:00:00 20,1 15,3 21,9 16,5 13 7 28 15 NO 1010,2 56 13 0,0
18.06.2019 12:00:00 19,6 15,9 18,0 16,6 16 9 26 14 ONO 1010,7 56 3 0,0
18.06.2019 11:00:00 17,4 15,2 17,1 16,6 8 4 20 11 O 1011,0 44 0 0,0

tt = temperatuur
td = dauwpunt
tt 5cm = temperatuur 5cm
tt -20cm = temperatuur -20cm
ff = windsnelheid
fx = windstoten
dd = windrichting
ppp = luchtdruk
vv = zicht
sd = Zonneschijnduur
rr = neerslag

Weerstations in de omgeving